| time (UTC) | temp C | wind direction | speed KPH | gust KPH | rain 1hr cm | rain 24hr cm | rain mn cm | humidity % | barometer mb |
| 20260506202725 | 15 | 275 | 9.7 | 19.3 | 0.00 | 0.71 | 0.71 | 95 | 1005.8 |
| 20260506202221 | 15 | 262 | 9.7 | 19.3 | 0.00 | 0.71 | 0.71 | 95 | 1005.8 |
| 20260506201718 | 15 | 247 | 9.7 | 19.3 | 0.00 | 0.71 | 0.71 | 95 | 1005.8 |
| 20260506201215 | 15 | 235 | 9.7 | 19.3 | 0.00 | 0.71 | 0.71 | 95 | 1006.1 |
| 20260506200711 | 15 | 264 | 9.7 | 19.3 | 0.00 | 0.71 | 0.71 | 95 | 1005.8 |
| 20260506200208 | 15 | 253 | 11.3 | 19.3 | 0.00 | 0.71 | 0.71 | 95 | 1005.8 |
| 20260506195704 | 15 | 256 | 9.7 | 20.9 | 0.00 | 0.71 | 0.71 | 95 | 1006.1 |
| 20260506195201 | 15 | 252 | 9.7 | 25.7 | 0.00 | 0.71 | 0.71 | 96 | 1006.1 |
| 20260506194658 | 15 | 256 | 9.7 | 25.7 | 0.00 | 0.71 | 0.71 | 96 | 1006.1 |
| 20260506194154 | 15 | 246 | 8.0 | 20.9 | 0.00 | 0.71 | 0.71 | 96 | 1006.1 |
| 20260506193652 | 15 | 258 | 9.7 | 20.9 | 0.00 | 0.71 | 0.71 | 96 | 1006.1 |
| 20260506193149 | 15 | 266 | 9.7 | 16.1 | 0.03 | 0.71 | 0.71 | 96 | 1006.1 |
| 20260506192646 | 15 | 243 | 8.0 | 16.1 | 0.03 | 0.71 | 0.71 | 96 | 1006.1 |
| 20260506192142 | 15 | 255 | 8.0 | 17.7 | 0.03 | 0.71 | 0.71 | 96 | 1006.1 |
| 20260506191639 | 15 | 237 | 8.0 | 17.7 | 0.05 | 0.71 | 0.71 | 96 | 1006.1 |
| 20260506191135 | 15 | 249 | 9.7 | 17.7 | 0.05 | 0.71 | 0.71 | 96 | 1006.1 |
| 20260506190632 | 15 | 175 | 9.7 | 24.1 | 0.05 | 0.71 | 0.71 | 96 | 1006.5 |
| 20260506190129 | 15 | 248 | 9.7 | 24.1 | 0.08 | 0.71 | 0.71 | 95 | 1006.5 |
| 20260506185626 | 15 | 253 | 8.0 | 19.3 | 0.08 | 0.71 | 0.71 | 95 | 1006.5 |
| 20260506185122 | 15 | 243 | 9.7 | 19.3 | 0.10 | 0.71 | 0.71 | 95 | 1006.5 |
| 20260506184620 | 15 | 261 | 9.7 | 22.5 | 0.10 | 0.71 | 0.71 | 95 | 1006.8 |
| 20260506184117 | 15 | 251 | 9.7 | 22.5 | 0.13 | 0.71 | 0.71 | 95 | 1006.8 |
| 20260506183614 | 15 | 258 | 8.0 | 22.5 | 0.13 | 0.71 | 0.71 | 95 | 1006.8 |
| 20260506183109 | 15 | 253 | 8.0 | 22.5 | 0.13 | 0.69 | 0.69 | 95 | 1006.8 |
| 20260506182607 | 15 | 319 | 8.0 | 22.5 | 0.13 | 0.69 | 0.69 | 95 | 1006.8 |
| 20260506182104 | 15 | 248 | 6.4 | 16.1 | 0.15 | 0.69 | 0.69 | 95 | 1006.8 |
| 20260506181602 | 15 | 162 | 6.4 | 19.3 | 0.13 | 0.66 | 0.66 | 95 | 1006.8 |
| 20260506181059 | 15 | 259 | 8.0 | 19.3 | 0.15 | 0.66 | 0.66 | 95 | 1007.2 |
| 20260506180555 | 15 | 270 | 8.0 | 19.3 | 0.15 | 0.66 | 0.66 | 95 | 1007.2 |
| 20260506180052 | 15 | 242 | 6.4 | 12.9 | 0.15 | 0.64 | 0.64 | 95 | 1007.2 |
| 20260506175548 | 15 | 226 | 6.4 | 19.3 | 0.18 | 0.64 | 0.64 | 95 | 1007.2 |
| 20260506175045 | 15 | 266 | 4.8 | 19.3 | 0.18 | 0.61 | 0.61 | 94 | 1007.2 |
| 20260506174544 | 15 | 251 | 3.2 | 11.3 | 0.18 | 0.61 | 0.61 | 94 | 1007.2 |
| 20260506174039 | 15 | 280 | 3.2 | 12.9 | 0.15 | 0.58 | 0.58 | 94 | 1007.2 |
| 20260506173537 | 15 | 209 | 3.2 | 12.9 | 0.15 | 0.58 | 0.58 | 94 | 1007.2 |
| 20260506173034 | 15 | 102 | 4.8 | 16.1 | 0.13 | 0.56 | 0.56 | 94 | 1007.2 |
| 20260506172531 | 15 | 224 | 4.8 | 16.1 | 0.13 | 0.56 | 0.56 | 94 | 1007.2 |
| 20260506172027 | 15 | 250 | 4.8 | 17.7 | 0.13 | 0.53 | 0.53 | 94 | 1007.2 |
| 20260506171525 | 15 | 238 | 6.4 | 17.7 | 0.13 | 0.53 | 0.53 | 94 | 1007.2 |
| 20260506171022 | 15 | 96 | 4.8 | 14.5 | 0.10 | 0.51 | 0.51 | 94 | 1007.5 |
| 20260506170520 | 15 | 223 | 4.8 | 12.9 | 0.10 | 0.51 | 0.51 | 94 | 1007.2 |
| 20260506170012 | 15 | 132 | 3.2 | 12.9 | 0.08 | 0.48 | 0.48 | 94 | 1007.2 |
| 20260506165510 | 15 | 240 | 4.8 | 14.5 | 0.08 | 0.46 | 0.46 | 93 | 1007.5 |
| 20260506165005 | 15 | 263 | 6.4 | 16.1 | 0.05 | 0.43 | 0.43 | 93 | 1007.2 |
| 20260506164502 | 15 | 205 | 4.8 | 20.9 | 0.10 | 0.43 | 0.43 | 93 | 1007.2 |
| 20260506164000 | 15 | 142 | 4.8 | 20.9 | 0.15 | 0.43 | 0.43 | 93 | 1007.5 |
| 20260506163455 | 15 | 75 | 4.8 | 16.1 | 0.18 | 0.43 | 0.43 | 93 | 1007.2 |
| 20260506162950 | 15 | 37 | 4.8 | 14.5 | 0.20 | 0.43 | 0.43 | 93 | 1007.5 |
| 20260506162449 | 15 | 252 | 4.8 | 17.7 | 0.25 | 0.43 | 0.43 | 93 | 1007.2 |
| 20260506161945 | 15 | 279 | 4.8 | 17.7 | 0.23 | 0.41 | 0.41 | 93 | 1007.5 |
| 20260506161443 | 15 | 160 | 4.8 | 14.5 | 0.23 | 0.41 | 0.41 | 93 | 1007.5 |
| 20260506160935 | 15 | 230 | 3.2 | 12.9 | 0.23 | 0.41 | 0.41 | 93 | 1007.2 |
| 20260506160432 | 15 | 96 | 4.8 | 14.5 | 0.23 | 0.41 | 0.41 | 92 | 1007.5 |
| 20260506155929 | 15 | 214 | 4.8 | 14.5 | 0.23 | 0.38 | 0.38 | 92 | 1007.2 |
| 20260506155426 | 15 | 153 | 4.8 | 16.1 | 0.23 | 0.38 | 0.38 | 92 | 1007.5 |
| 20260506153548 | 15 | 227 | 4.8 | 14.5 | 0.15 | 0.25 | 0.25 | 92 | 1008.2 |
| 20260506153046 | 15 | 252 | 3.2 | 14.5 | 0.13 | 0.23 | 0.23 | 91 | 1008.5 |
| 20260506152543 | 16 | 142 | 4.8 | 17.7 | 0.13 | 0.20 | 0.20 | 91 | 1008.5 |
| 20260506152041 | 16 | 301 | 4.8 | 16.1 | 0.13 | 0.18 | 0.18 | 91 | 1008.5 |
| 20260506151539 | 16 | 106 | 3.2 | 16.1 | 0.15 | 0.18 | 0.18 | 91 | 1008.2 |
| 20260506151035 | 16 | 110 | 3.2 | 12.9 | 0.15 | 0.18 | 0.18 | 91 | 1008.2 |
| 20260506150532 | 16 | 149 | 1.6 | 9.7 | 0.15 | 0.18 | 0.18 | 91 | 1008.2 |
| 20260506150029 | 16 | 139 | 1.6 | 8.0 | 0.13 | 0.15 | 0.15 | 91 | 1008.2 |
| 20260506145525 | 16 | 165 | 1.6 | 8.0 | 0.13 | 0.15 | 0.15 | 90 | 1008.2 |
| 20260506145023 | 16 | 240 | 1.6 | 8.0 | 0.13 | 0.15 | 0.15 | 90 | 1008.2 |
| 20260506144519 | 16 | 291 | 1.6 | 8.0 | 0.13 | 0.13 | 0.13 | 90 | 1008.2 |
| 20260506144017 | 16 | 269 | 3.2 | 11.3 | 0.13 | 0.13 | 0.13 | 90 | 1008.2 |
| 20260506143514 | 16 | 261 | 3.2 | 11.3 | 0.10 | 0.10 | 0.10 | 89 | 1008.2 |
| 20260506143013 | 16 | 321 | 4.8 | 14.5 | 0.10 | 0.10 | 0.10 | 89 | 1008.2 |
| 20260506142510 | 16 | 231 | 6.4 | 19.3 | 0.08 | 0.08 | 0.08 | 88 | 1008.2 |
| 20260506142008 | 16 | 245 | 6.4 | 19.3 | 0.05 | 0.05 | 0.05 | 88 | 1008.5 |
| 20260506141506 | 16 | 253 | 4.8 | 12.9 | 0.03 | 0.05 | 0.05 | 87 | 1008.2 |
| 20260506141004 | 16 | 246 | 6.4 | 16.1 | 0.03 | 0.03 | 0.03 | 87 | 1008.2 |
| 20260506140501 | 16 | 245 | 6.4 | 16.1 | 0.03 | 0.03 | 0.03 | 86 | 1008.2 |
| 20260506135957 | 16 | 238 | 4.8 | 14.5 | 0.03 | 0.03 | 0.03 | 86 | 1008.2 |
| 20260506135455 | 16 | 266 | 4.8 | 19.3 | 0.03 | 0.03 | 0.03 | 86 | 1008.2 |
| 20260506134951 | 16 | 258 | 6.4 | 17.7 | 0.00 | 0.00 | 0.00 | 86 | 1008.2 |
| 20260506134447 | 16 | 223 | 6.4 | 16.1 | 0.00 | 0.00 | 0.00 | 86 | 1008.2 |
| 20260506133944 | 16 | 247 | 6.4 | 16.1 | 0.00 | 0.00 | 0.00 | 85 | 1008.5 |
| 20260506133441 | 16 | 257 | 6.4 | 12.9 | 0.00 | 0.00 | 0.00 | 85 | 1008.5 |
| 20260506132938 | 16 | 268 | 8.0 | 17.7 | 0.00 | 0.00 | 0.00 | 85 | 1008.5 |
| 20260506132435 | 16 | 237 | 8.0 | 17.7 | 0.00 | 0.00 | 0.00 | 84 | 1008.5 |
| 20260506131932 | 16 | 242 | 9.7 | 17.7 | 0.00 | 0.00 | 0.00 | 84 | 1008.2 |
| 20260506131428 | 16 | 264 | 11.3 | 24.1 | 0.00 | 0.00 | 0.00 | 84 | 1008.5 |
| 20260506130925 | 17 | 129 | 11.3 | 27.4 | 0.00 | 0.00 | 0.00 | 83 | 1008.5 |
| 20260506130422 | 17 | 262 | 11.3 | 24.1 | 0.00 | 0.00 | 0.00 | 82 | 1008.5 |
| 20260506125920 | 17 | 184 | 9.7 | 24.1 | 0.00 | 0.00 | 0.00 | 81 | 1008.5 |
| 20260506125418 | 17 | 252 | 8.0 | 20.9 | 0.00 | 0.00 | 0.00 | 80 | 1008.5 |
| 20260506124916 | 17 | 249 | 11.3 | 29.0 | 0.00 | 0.00 | 0.00 | 79 | 1008.5 |
| 20260506124413 | 17 | 239 | 11.3 | 29.0 | 0.00 | 0.00 | 0.00 | 79 | 1008.5 |
| 20260506123911 | 17 | 274 | 11.3 | 25.7 | 0.00 | 0.00 | 0.00 | 78 | 1008.5 |
| 20260506123409 | 17 | 245 | 9.7 | 27.4 | 0.00 | 0.00 | 0.00 | 78 | 1008.5 |
| 20260506122906 | 17 | 226 | 6.4 | 27.4 | 0.00 | 0.00 | 0.00 | 78 | 1008.2 |
| 20260506122402 | 17 | 68 | 4.8 | 17.7 | 0.00 | 0.00 | 0.00 | 78 | 1008.2 |
| 20260506121901 | 17 | 101 | 4.8 | 14.5 | 0.00 | 0.00 | 0.00 | 78 | 1008.2 |
| 20260506121357 | 17 | 235 | 4.8 | 16.1 | 0.00 | 0.00 | 0.00 | 78 | 1008.2 |
| 20260506120854 | 17 | 150 | 4.8 | 20.9 | 0.00 | 0.00 | 0.00 | 78 | 1008.2 |
| 20260506120352 | 17 | 254 | 4.8 | 20.9 | 0.00 | 0.00 | 0.00 | 78 | 1008.2 |
| 20260506115849 | 17 | 217 | 4.8 | 17.7 | 0.00 | 0.00 | 0.00 | 78 | 1008.2 |
| 20260506115347 | 17 | 210 | 6.4 | 17.7 | 0.00 | 0.00 | 0.00 | 78 | 1008.2 |
| 20260506114845 | 17 | 245 | 4.8 | 17.7 | 0.00 | 0.00 | 0.00 | 78 | 1008.2 |
| 20260506114342 | 17 | 248 | 4.8 | 17.7 | 0.00 | 0.00 | 0.00 | 78 | 1008.2 |
| 20260506113841 | 17 | 253 | 6.4 | 17.7 | 0.00 | 0.00 | 0.00 | 78 | 1008.2 |
| 20260506113338 | 17 | 248 | 8.0 | 19.3 | 0.00 | 0.00 | 0.00 | 78 | 1008.2 |
| 20260506112835 | 17 | 227 | 6.4 | 22.5 | 0.00 | 0.00 | 0.00 | 78 | 1008.5 |
| 20260506112332 | 17 | 338 | 6.4 | 20.9 | 0.00 | 0.00 | 0.00 | 78 | 1008.5 |
| 20260506111829 | 17 | 257 | 4.8 | 20.9 | 0.00 | 0.00 | 0.00 | 78 | 1008.2 |
| 20260506111328 | 17 | 283 | 4.8 | 20.9 | 0.00 | 0.00 | 0.00 | 78 | 1008.2 |
| 20260506110825 | 17 | 276 | 4.8 | 20.9 | 0.00 | 0.00 | 0.00 | 78 | 1008.2 |
| 20260506110322 | 17 | 99 | 4.8 | 20.9 | 0.00 | 0.00 | 0.00 | 78 | 1008.2 |
| 20260506105819 | 17 | 32 | 4.8 | 20.9 | 0.00 | 0.00 | 0.00 | 78 | 1008.2 |
| 20260506105315 | 17 | 194 | 3.2 | 20.9 | 0.00 | 0.00 | 0.00 | 79 | 1008.2 |
| 20260506104812 | 17 | 233 | 1.6 | 12.9 | 0.00 | 0.00 | 0.00 | 79 | 1007.8 |
| 20260506104310 | 17 | 115 | 3.2 | 12.9 | 0.00 | 0.00 | 0.00 | 79 | 1007.8 |
| 20260506103808 | 17 | 11 | 3.2 | 11.3 | 0.00 | 0.00 | 0.00 | 79 | 1007.8 |
| 20260506103305 | 17 | 108 | 1.6 | 9.7 | 0.00 | 0.00 | 0.00 | 79 | 1007.8 |
| 20260506102802 | 17 | 194 | 1.6 | 8.0 | 0.00 | 0.00 | 0.00 | 79 | 1007.8 |
| 20260506102300 | 17 | 299 | 3.2 | 11.3 | 0.00 | 0.00 | 0.00 | 79 | 1007.8 |
| 20260506101757 | 17 | 254 | 1.6 | 11.3 | 0.00 | 0.00 | 0.00 | 79 | 1007.8 |
| 20260506101253 | 17 | 135 | 1.6 | 4.8 | 0.00 | 0.00 | 0.00 | 78 | 1007.8 |
| 20260506100751 | 17 | 221 | 1.6 | 6.4 | 0.00 | 0.00 | 0.00 | 78 | 1007.5 |
| 20260506100249 | 17 | 172 | 1.6 | 12.9 | 0.00 | 0.00 | 0.00 | 77 | 1007.8 |
| 20260506095748 | 17 | 28 | 3.2 | 12.9 | 0.00 | 0.00 | 0.00 | 77 | 1007.8 |
| 20260506095244 | 17 | 261 | 3.2 | 17.7 | 0.00 | 0.00 | 0.00 | 77 | 1008.2 |
| 20260506094740 | 17 | 347 | 4.8 | 17.7 | 0.00 | 0.00 | 0.00 | 77 | 1008.2 |
| 20260506094239 | 17 | 227 | 3.2 | 14.5 | 0.00 | 0.00 | 0.00 | 76 | 1007.8 |
| 20260506093737 | 17 | 257 | 3.2 | 12.9 | 0.00 | 0.00 | 0.00 | 76 | 1007.8 |
| 20260506093234 | 17 | 176 | 3.2 | 14.5 | 0.00 | 0.00 | 0.00 | 75 | 1007.8 |
| 20260506092732 | 17 | 120 | 4.8 | 17.7 | 0.00 | 0.00 | 0.00 | 75 | 1007.8 |
| 20260506092230 | 17 | 233 | 4.8 | 17.7 | 0.00 | 0.00 | 0.00 | 75 | 1007.8 |
| 20260506091727 | 17 | 233 | 3.2 | 17.7 | 0.00 | 0.00 | 0.00 | 75 | 1007.8 |
| 20260506091224 | 17 | 190 | 3.2 | 17.7 | 0.00 | 0.00 | 0.00 | 75 | 1007.8 |
| 20260506090722 | 17 | 255 | 3.2 | 16.1 | 0.00 | 0.00 | 0.00 | 74 | 1007.5 |
| 20260506090218 | 18 | 96 | 4.8 | 19.3 | 0.00 | 0.00 | 0.00 | 74 | 1007.8 |
| 20260506085715 | 18 | 275 | 4.8 | 16.1 | 0.00 | 0.00 | 0.00 | 73 | 1007.8 |
| 20260506085211 | 18 | 291 | 4.8 | 16.1 | 0.00 | 0.00 | 0.00 | 73 | 1007.8 |
| 20260506084708 | 18 | 258 | 4.8 | 16.1 | 0.00 | 0.00 | 0.00 | 73 | 1007.8 |
| 20260506084204 | 18 | 248 | 3.2 | 19.3 | 0.00 | 0.00 | 0.00 | 73 | 1008.2 |
| 20260506083701 | 18 | 139 | 3.2 | 19.3 | 0.00 | 0.00 | 0.00 | 72 | 1007.8 |
| 20260506083159 | 18 | 265 | 4.8 | 14.5 | 0.00 | 0.00 | 0.00 | 72 | 1007.8 |
| 20260506082656 | 18 | 269 | 4.8 | 17.7 | 0.00 | 0.00 | 0.00 | 72 | 1008.2 |
| 20260506082156 | 18 | 108 | 3.2 | 17.7 | 0.00 | 0.00 | 0.00 | 71 | 1008.2 |
| 20260506081655 | 18 | 249 | 4.8 | 14.5 | 0.00 | 0.00 | 0.00 | 71 | 1008.2 |
| 20260506081152 | 18 | 139 | 4.8 | 17.7 | 0.00 | 0.00 | 0.00 | 71 | 1008.2 |
| 20260506080650 | 18 | 269 | 4.8 | 17.7 | 0.00 | 0.00 | 0.00 | 71 | 1007.8 |
| 20260506080146 | 18 | 328 | 4.8 | 16.1 | 0.00 | 0.00 | 0.00 | 70 | 1007.8 |
| 20260506073130 | 18 | 259 | 4.8 | 12.9 | 0.00 | 0.00 | 0.00 | 69 | 1008.2 |
| 20260506072627 | 18 | 266 | 3.2 | 12.9 | 0.00 | 0.00 | 0.00 | 69 | 1008.2 |
| 20260506072125 | 18 | 242 | 3.2 | 12.9 | 0.00 | 0.00 | 0.00 | 68 | 1008.2 |
| 20260506071622 | 18 | 132 | 3.2 | 12.9 | 0.00 | 0.00 | 0.00 | 68 | 1008.2 |
| 20260506071120 | 18 | 220 | 3.2 | 12.9 | 0.00 | 0.00 | 0.00 | 68 | 1008.2 |
| 20260506070616 | 18 | 247 | 4.8 | 11.3 | 0.00 | 0.00 | 0.00 | 67 | 1008.2 |
| 20260506070114 | 18 | 252 | 4.8 | 16.1 | 0.00 | 0.00 | 0.00 | 67 | 1008.2 |
| 20260506062051 | 18 | 298 | 3.2 | 12.9 | 0.00 | 0.00 | 0.00 | 66 | 1008.5 |
| 20260506061546 | 18 | 221 | 3.2 | 12.9 | 0.00 | 0.00 | 0.00 | 65 | 1008.5 |
| 20260506061044 | 18 | 195 | 4.8 | 20.9 | 0.00 | 0.00 | 0.00 | 65 | 1008.5 |
| 20260506060543 | 19 | 271 | 6.4 | 20.9 | 0.00 | 0.00 | 0.00 | 65 | 1008.9 |
| 20260506051011 | 18 | 131 | 1.6 | 11.3 | 0.00 | 0.00 | 0.00 | 65 | 1008.9 |
| 20260506050509 | 18 | 101 | 1.6 | 6.4 | 0.00 | 0.00 | 0.00 | 66 | 1008.9 |
| 20260506044959 | 18 | 279 | 3.2 | 9.7 | 0.00 | 0.00 | 0.00 | 65 | 1009.3 |
| 20260506044458 | 18 | 261 | 1.6 | 9.7 | 0.00 | 0.00 | 0.00 | 65 | 1009.3 |
| 20260506043954 | 18 | 129 | 1.6 | 9.7 | 0.00 | 0.00 | 0.00 | 65 | 1009.3 |
| 20260506043451 | 18 | 242 | 0.0 | 6.4 | 0.00 | 0.00 | 0.00 | 65 | 1009.3 |
| 20260506042949 | 18 | 153 | 1.6 | 6.4 | 0.00 | 0.00 | 0.00 | 64 | 1009.3 |
| 20260506042448 | 18 | 131 | 1.6 | 6.4 | 0.00 | 0.00 | 0.00 | 64 | 1009.3 |
| 20260506041946 | 18 | 149 | 1.6 | 9.7 | 0.00 | 0.00 | 0.00 | 64 | 1009.3 |
| 20260506041443 | 18 | 22 | 1.6 | 9.7 | 0.00 | 0.00 | 0.00 | 63 | 1009.3 |
| 20260506040940 | 18 | 115 | 1.6 | 8.0 | 0.00 | 0.00 | 0.00 | 63 | 1009.3 |
| 20260506040438 | 18 | 199 | 1.6 | 8.0 | 0.00 | 0.00 | 0.00 | 63 | 1009.3 |
| 20260506035934 | 18 | 323 | 1.6 | 8.0 | 0.00 | 0.10 | 0.10 | 63 | 1009.3 |
| 20260506035431 | 18 | 323 | 1.6 | 6.4 | 0.00 | 0.10 | 0.10 | 62 | 1008.9 |
| 20260506034928 | 19 | 249 | 3.2 | 11.3 | 0.00 | 0.10 | 0.10 | 62 | 1009.3 |
| 20260506034425 | 19 | 180 | 1.6 | 11.3 | 0.00 | 0.10 | 0.10 | 62 | 1009.3 |
| 20260506033922 | 19 | 269 | 1.6 | 8.0 | 0.00 | 0.10 | 0.10 | 61 | 1009.3 |
| 20260506033419 | 19 | 75 | 1.6 | 9.7 | 0.00 | 0.10 | 0.10 | 61 | 1009.3 |
| 20260506032916 | 19 | 221 | 1.6 | 9.7 | 0.00 | 0.10 | 0.10 | 61 | 1008.9 |
| 20260506032413 | 19 | 129 | 1.6 | 4.8 | 0.00 | 0.10 | 0.10 | 61 | 1009.3 |
| 20260506031910 | 19 | 271 | 1.6 | 4.8 | 0.00 | 0.10 | 0.10 | 60 | 1008.9 |
| 20260506031407 | 19 | 145 | 1.6 | 4.8 | 0.00 | 0.10 | 0.10 | 60 | 1008.9 |
| 20260506030905 | 20 | 280 | 1.6 | 8.0 | 0.00 | 0.10 | 0.10 | 59 | 1009.3 |
| 20260506030403 | 20 | 272 | 1.6 | 9.7 | 0.00 | 0.10 | 0.10 | 59 | 1008.9 |
| 20260506025859 | 20 | 169 | 1.6 | 9.7 | 0.00 | 0.10 | 0.10 | 58 | 1008.9 |
| 20260506025356 | 20 | 307 | 1.6 | 6.4 | 0.00 | 0.10 | 0.10 | 58 | 1008.9 |
| 20260506024853 | 20 | 234 | 1.6 | 8.0 | 0.00 | 0.10 | 0.10 | 57 | 1008.9 |
| 20260506024350 | 20 | 235 | 1.6 | 12.9 | 0.00 | 0.10 | 0.10 | 56 | 1008.9 |
| 20260506023846 | 21 | 124 | 4.8 | 16.1 | 0.00 | 0.10 | 0.10 | 55 | 1009.3 |
| 20260506023343 | 21 | 283 | 6.4 | 16.1 | 0.00 | 0.10 | 0.10 | 55 | 1009.3 |
| 20260506022839 | 21 | 86 | 4.8 | 16.1 | 0.00 | 0.10 | 0.10 | 54 | 1009.3 |
| 20260506022337 | 21 | 137 | 4.8 | 14.5 | 0.00 | 0.10 | 0.10 | 54 | 1009.3 |
| 20260506021835 | 21 | 262 | 4.8 | 16.1 | 0.00 | 0.10 | 0.10 | 54 | 1008.9 |
| 20260506021332 | 21 | 242 | 3.2 | 16.1 | 0.00 | 0.10 | 0.10 | 53 | 1008.9 |
| 20260506020828 | 21 | 184 | 3.2 | 20.9 | 0.00 | 0.10 | 0.10 | 53 | 1008.9 |
| 20260506020326 | 21 | 273 | 3.2 | 20.9 | 0.00 | 0.10 | 0.10 | 53 | 1008.9 |
| 20260506015824 | 21 | 129 | 3.2 | 12.9 | 0.00 | 0.10 | 0.10 | 52 | 1008.9 |
| 20260506015321 | 21 | 234 | 3.2 | 12.9 | 0.00 | 0.10 | 0.10 | 52 | 1008.9 |
| 20260506014817 | 21 | 255 | 4.8 | 12.9 | 0.00 | 0.10 | 0.10 | 51 | 1008.9 |
| 20260506014314 | 21 | 231 | 4.8 | 12.9 | 0.00 | 0.10 | 0.10 | 51 | 1008.9 |
| 20260506013811 | 22 | 255 | 4.8 | 12.9 | 0.00 | 0.10 | 0.10 | 50 | 1008.9 |
| 20260506013308 | 22 | 283 | 4.8 | 14.5 | 0.00 | 0.10 | 0.10 | 50 | 1008.9 |
| 20260506012805 | 22 | 243 | 6.4 | 20.9 | 0.00 | 0.10 | 0.10 | 50 | 1008.5 |
| 20260506012307 | 22 | 245 | 4.8 | 20.9 | 0.00 | 0.10 | 0.10 | 50 | 1008.5 |
| 20260506011759 | 22 | 257 | 4.8 | 17.7 | 0.00 | 0.10 | 0.10 | 49 | 1008.5 |
| 20260506011255 | 22 | 224 | 4.8 | 17.7 | 0.00 | 0.10 | 0.10 | 49 | 1008.5 |
| 20260506010754 | 22 | 262 | 4.8 | 16.1 | 0.00 | 0.10 | 0.10 | 49 | 1008.2 |
| 20260506010251 | 22 | 295 | 6.4 | 16.1 | 0.00 | 0.10 | 0.10 | 49 | 1008.2 |
| 20260506005748 | 22 | 184 | 6.4 | 16.1 | 0.00 | 0.10 | 0.10 | 49 | 1008.2 |
| 20260506005245 | 22 | 257 | 6.4 | 27.4 | 0.00 | 0.10 | 0.10 | 49 | 1008.2 |
| 20260506004740 | 22 | 200 | 8.0 | 27.4 | 0.00 | 0.10 | 0.10 | 48 | 1008.2 |
| 20260506004238 | 22 | 79 | 6.4 | 24.1 | 0.00 | 0.10 | 0.10 | 48 | 1008.2 |
| 20260506003734 | 22 | 58 | 6.4 | 20.9 | 0.00 | 0.10 | 0.10 | 49 | 1008.2 |
| 20260506003231 | 22 | 142 | 4.8 | 16.1 | 0.00 | 0.10 | 0.10 | 49 | 1008.2 |
| 20260506002726 | 22 | 248 | 4.8 | 19.3 | 0.00 | 0.10 | 0.10 | 49 | 1007.8 |
| 20260506002223 | 22 | 260 | 4.8 | 19.3 | 0.00 | 0.10 | 0.10 | 49 | 1007.8 |
| 20260506001719 | 22 | 322 | 4.8 | 16.1 | 0.00 | 0.10 | 0.10 | 49 | 1007.8 |
| 20260506001217 | 22 | 84 | 4.8 | 16.1 | 0.00 | 0.10 | 0.10 | 48 | 1007.8 |
| 20260506000713 | 23 | 244 | 4.8 | 19.3 | 0.00 | 0.10 | 0.10 | 48 | 1007.8 |
| 20260506000212 | 23 | 224 | 6.4 | 25.7 | 0.00 | 0.10 | 0.10 | 47 | 1007.8 |
| 20260505235708 | 23 | 264 | 8.0 | 29.0 | 0.00 | 0.10 | 0.10 | 47 | 1007.8 |
| 20260505235206 | 23 | 195 | 8.0 | 29.0 | 0.00 | 0.10 | 0.10 | 47 | 1007.8 |
| 20260505234702 | 23 | 256 | 8.0 | 22.5 | 0.00 | 0.10 | 0.10 | 47 | 1007.8 |
| 20260505234200 | 23 | 239 | 6.4 | 22.5 | 0.00 | 0.10 | 0.10 | 47 | 1007.5 |
| 20260505233657 | 23 | 217 | 6.4 | 19.3 | 0.00 | 0.10 | 0.10 | 47 | 1007.5 |
| 20260505233155 | 23 | 252 | 4.8 | 16.1 | 0.00 | 0.10 | 0.10 | 46 | 1007.8 |
| 20260505232652 | 24 | 134 | 6.4 | 25.7 | 0.00 | 0.10 | 0.10 | 46 | 1007.5 |
| 20260505232150 | 24 | 8 | 9.7 | 25.7 | 0.00 | 0.10 | 0.10 | 45 | 1007.5 |
| 20260505231646 | 24 | 117 | 9.7 | 25.7 | 0.00 | 0.10 | 0.10 | 45 | 1007.5 |
| 20260505231145 | 24 | 252 | 12.9 | 41.8 | 0.00 | 0.10 | 0.10 | 45 | 1007.5 |
| 20260505230642 | 24 | 230 | 12.9 | 41.8 | 0.00 | 0.10 | 0.10 | 45 | 1007.5 |
| 20260505230138 | 24 | 273 | 8.0 | 24.1 | 0.00 | 0.10 | 0.10 | 45 | 1007.5 |
| 20260505225634 | 24 | 90 | 8.0 | 25.7 | 0.00 | 0.10 | 0.10 | 45 | 1007.5 |
| 20260505225131 | 25 | 155 | 8.0 | 27.4 | 0.00 | 0.10 | 0.10 | 45 | 1007.2 |
| 20260505224627 | 25 | 349 | 8.0 | 30.6 | 0.00 | 0.10 | 0.10 | 44 | 1007.2 |
| 20260505224125 | 25 | 214 | 11.3 | 32.2 | 0.00 | 0.10 | 0.10 | 44 | 1007.2 |
| 20260505223622 | 25 | 323 | 16.1 | 38.6 | 0.00 | 0.10 | 0.10 | 43 | 1007.2 |
| 20260505223118 | 25 | 214 | 16.1 | 38.6 | 0.00 | 0.10 | 0.10 | 41 | 1007.2 |
| 20260505222615 | 25 | 238 | 14.5 | 32.2 | 0.00 | 0.10 | 0.10 | 41 | 1007.2 |
| 20260505222111 | 25 | 176 | 12.9 | 32.2 | 0.00 | 0.10 | 0.10 | 42 | 1007.2 |
| 20260505221603 | 25 | 226 | 9.7 | 27.4 | 0.00 | 0.10 | 0.10 | 42 | 1007.2 |
| 20260505221059 | 25 | 121 | 9.7 | 27.4 | 0.00 | 0.10 | 0.10 | 42 | 1006.8 |
| 20260505220556 | 26 | 89 | 12.9 | 37.0 | 0.00 | 0.10 | 0.10 | 42 | 1007.2 |
| 20260505220054 | 26 | 83 | 11.3 | 37.0 | 0.00 | 0.10 | 0.10 | 41 | 1006.8 |
| 20260505215552 | 25 | 213 | 11.3 | 35.4 | 0.00 | 0.10 | 0.10 | 44 | 1006.8 |
| 20260505215050 | 25 | 89 | 9.7 | 35.4 | 0.00 | 0.10 | 0.10 | 43 | 1006.8 |
| 20260505214548 | 26 | 274 | 9.7 | 24.1 | 0.00 | 0.10 | 0.10 | 43 | 1006.8 |
| 20260505214044 | 26 | 231 | 12.9 | 30.6 | 0.00 | 0.10 | 0.10 | 42 | 1007.2 |
| 20260505213542 | 26 | 258 | 14.5 | 32.2 | 0.00 | 0.10 | 0.10 | 41 | 1007.2 |
| 20260505213038 | 26 | 219 | 14.5 | 32.2 | 0.00 | 0.10 | 0.10 | 41 | 1007.2 |
| 20260505212535 | 26 | 259 | 14.5 | 35.4 | 0.00 | 0.10 | 0.10 | 40 | 1006.8 |
| 20260505212032 | 26 | 241 | 12.9 | 35.4 | 0.00 | 0.10 | 0.10 | 39 | 1007.2 |
| 20260505211529 | 26 | 268 | 12.9 | 32.2 | 0.00 | 0.10 | 0.10 | 40 | 1006.8 |
| 20260505211026 | 26 | 93 | 14.5 | 33.8 | 0.00 | 0.10 | 0.10 | 41 | 1006.8 |
| 20260505210522 | 26 | 245 | 16.1 | 38.6 | 0.00 | 0.10 | 0.10 | 40 | 1006.8 |
| 20260505210020 | 26 | 231 | 14.5 | 38.6 | 0.00 | 0.10 | 0.10 | 39 | 1006.8 |
| 20260505205518 | 26 | 244 | 16.1 | 38.6 | 0.00 | 0.10 | 0.10 | 40 | 1006.8 |
| 20260505205015 | 26 | 44 | 17.7 | 38.6 | 0.00 | 0.10 | 0.10 | 41 | 1007.2 |
| 20260505204512 | 26 | 276 | 17.7 | 38.6 | 0.00 | 0.10 | 0.10 | 40 | 1006.8 |
| 20260505204009 | 26 | 208 | 16.1 | 38.6 | 0.00 | 0.10 | 0.10 | 41 | 1006.8 |
| 20260505203506 | 27 | 139 | 12.9 | 35.4 | 0.00 | 0.10 | 0.10 | 41 | 1006.8 |
| 20260505203003 | 26 | 181 | 11.3 | 35.4 | 0.00 | 0.10 | 0.10 | 40 | 1006.5 |